Time,TemperatureF,DewpointF,PressureIn,WindDirection,WindDirectionDegrees,WindSpeedMPH,WindSpeedGustMPH,Humidity,HourlyPrecipIn,Conditions,Clouds,dailyrainin,SolarRadiationWatts/m^2,SoftwareType,DateUTC
2013-05-02 00:03:00,49.0,48.0,-100.00,ESE,119,3.0,7.0,95,0.00,,,-99.99,0.000000,,2013-05-02 04:03:00,
2013-05-02 00:33:00,49.0,47.0,-100.00,ENE,72,3.0,10.0,94,0.00,,,0.00,0.000000,,2013-05-02 04:33:00,
2013-05-02 00:43:00,49.0,47.0,-100.00,ENE,72,3.0,10.0,94,0.00,,,0.00,0.000000,,2013-05-02 04:43:00,
2013-05-02 00:52:00,49.0,47.0,-100.00,ENE,72,3.0,10.0,94,0.00,,,0.00,0.000000,,2013-05-02 04:52:00,
2013-05-02 01:02:00,49.0,47.0,-100.00,ENE,72,3.0,10.0,94,0.00,,,0.00,0.000000,,2013-05-02 05:02:00,
2013-05-02 01:32:00,48.0,47.0,-100.00,East,90,2.0,9.0,97,0.00,,,0.00,0.000000,,2013-05-02 05:32:00,
2013-05-02 01:42:00,48.0,47.0,-100.00,East,90,2.0,9.0,97,0.00,,,0.00,0.000000,,2013-05-02 05:42:00,
2013-05-02 01:52:00,48.0,47.0,-100.00,East,90,2.0,9.0,97,0.00,,,0.00,0.000000,,2013-05-02 05:52:00,
2013-05-02 02:01:00,48.0,47.0,-100.00,East,90,2.0,9.0,97,0.00,,,0.00,0.000000,,2013-05-02 06:01:00,
2013-05-02 04:32:00,49.0,48.0,-100.00,North,4,1.0,4.0,98,-99.99,,,0.00,0.000000,,2013-05-02 08:32:00,
2013-05-02 04:42:00,49.0,48.0,-100.00,North,4,1.0,4.0,98,-99.99,,,0.00,0.000000,,2013-05-02 08:42:00,
2013-05-02 04:52:00,49.0,48.0,-100.00,North,4,1.0,4.0,98,-99.99,,,0.00,0.000000,,2013-05-02 08:52:00,
2013-05-02 05:02:00,49.0,48.0,-100.00,North,4,1.0,4.0,98,-99.99,,,0.00,0.000000,,2013-05-02 09:02:00,
2013-05-02 05:33:00,47.0,47.0,-100.00,NNW,330,0.0,1.0,99,0.00,,,0.00,0.000000,,2013-05-02 09:33:00,
2013-05-02 05:43:00,47.0,47.0,-100.00,NNW,330,0.0,1.0,99,0.00,,,0.00,0.000000,,2013-05-02 09:43:00,
2013-05-02 05:52:00,47.0,47.0,-100.00,NNW,330,0.0,1.0,99,0.00,,,0.00,0.000000,,2013-05-02 09:52:00,
2013-05-02 06:03:00,47.0,47.0,-100.00,NNW,330,0.0,1.0,99,0.00,,,0.00,0.000000,,2013-05-02 10:03:00,
2013-05-02 06:33:00,47.0,47.0,-100.00,NNE,18,3.0,5.0,100,0.00,,,0.00,1.000000,,2013-05-02 10:33:00,
2013-05-02 06:42:00,47.0,47.0,-100.00,NNE,18,3.0,5.0,100,0.00,,,0.00,1.000000,,2013-05-02 10:42:00,
2013-05-02 06:53:00,47.0,47.0,-100.00,NNE,18,3.0,5.0,100,0.00,,,0.00,1.000000,,2013-05-02 10:53:00,
2013-05-02 07:02:00,47.0,47.0,-100.00,NNE,18,3.0,5.0,100,0.00,,,0.00,1.000000,,2013-05-02 11:02:00,
2013-05-02 07:32:00,49.0,48.0,-100.00,NE,46,3.0,7.0,98,0.00,,,0.00,26.000000,,2013-05-02 11:32:00,
2013-05-02 07:42:00,49.0,48.0,-100.00,NE,46,3.0,7.0,98,0.00,,,0.00,26.000000,,2013-05-02 11:42:00,
2013-05-02 07:52:00,49.0,48.0,-100.00,NE,46,3.0,7.0,98,0.00,,,0.00,26.000000,,2013-05-02 11:52:00,
2013-05-02 08:01:00,49.0,48.0,-100.00,NE,46,3.0,7.0,98,0.00,,,0.00,26.000000,,2013-05-02 12:01:00,
2013-05-02 09:32:00,54.0,49.0,-100.00,NNE,25,5.0,11.0,84,-99.99,,,0.00,265.000000,,2013-05-02 13:32:00,
2013-05-02 09:42:00,54.0,49.0,-100.00,NNE,25,5.0,11.0,84,-99.99,,,0.00,265.000000,,2013-05-02 13:42:00,
2013-05-02 09:52:00,54.0,49.0,-100.00,NNE,25,5.0,11.0,84,-99.99,,,0.00,265.000000,,2013-05-02 13:52:00,
2013-05-02 10:02:00,54.0,49.0,-100.00,NNE,25,5.0,11.0,84,-99.99,,,0.00,265.000000,,2013-05-02 14:02:00,
2013-05-02 10:32:00,58.0,50.0,-100.00,East,85,4.0,11.0,75,0.00,,,0.00,432.000000,,2013-05-02 14:32:00,
2013-05-02 10:43:00,58.0,50.0,-100.00,East,85,4.0,11.0,75,0.00,,,0.00,432.000000,,2013-05-02 14:43:00,
2013-05-02 10:52:00,58.0,50.0,-100.00,East,85,4.0,11.0,75,0.00,,,0.00,432.000000,,2013-05-02 14:52:00,
2013-05-02 11:02:00,58.0,50.0,-100.00,East,85,4.0,11.0,75,0.00,,,0.00,432.000000,,2013-05-02 15:02:00,
2013-05-02 11:33:00,60.0,51.0,-100.00,ENE,71,5.0,10.0,71,0.00,,,0.00,445.000000,,2013-05-02 15:33:00,
2013-05-02 11:43:00,60.0,51.0,-100.00,ENE,71,5.0,10.0,71,0.00,,,0.00,445.000000,,2013-05-02 15:43:00,
2013-05-02 12:03:00,60.0,51.0,-100.00,ENE,71,5.0,10.0,71,0.00,,,0.00,445.000000,,2013-05-02 16:03:00,
2013-05-02 12:32:00,62.0,49.0,-100.00,East,81,6.0,12.0,63,0.00,,,0.00,646.000000,,2013-05-02 16:32:00,
2013-05-02 12:43:00,62.0,49.0,-100.00,East,81,6.0,12.0,63,0.00,,,0.00,646.000000,,2013-05-02 16:43:00,
2013-05-02 12:52:00,62.0,49.0,-100.00,East,81,6.0,12.0,63,0.00,,,0.00,646.000000,,2013-05-02 16:52:00,
2013-05-02 13:02:00,62.0,49.0,-100.00,East,81,6.0,12.0,63,0.00,,,0.00,646.000000,,2013-05-02 17:02:00,
2013-05-02 13:32:00,64.0,48.0,-100.00,East,93,7.0,14.0,57,0.00,,,0.00,853.000000,,2013-05-02 17:32:00,
2013-05-02 13:42:00,64.0,48.0,-100.00,East,93,7.0,14.0,57,0.00,,,0.00,853.000000,,2013-05-02 17:42:00,
2013-05-02 13:52:00,64.0,48.0,-100.00,East,93,7.0,14.0,57,0.00,,,0.00,853.000000,,2013-05-02 17:52:00,
2013-05-02 14:01:00,64.0,48.0,-100.00,East,93,7.0,14.0,57,0.00,,,0.00,853.000000,,2013-05-02 18:01:00,
2013-05-02 14:32:00,64.0,42.0,-100.00,SE,130,7.0,15.0,44,0.00,,,0.00,981.000000,,2013-05-02 18:32:00,
2013-05-02 14:42:00,64.0,42.0,-100.00,SE,130,7.0,15.0,44,0.00,,,0.00,981.000000,,2013-05-02 18:42:00,
2013-05-02 14:52:00,64.0,42.0,-100.00,SE,130,7.0,15.0,44,0.00,,,0.00,981.000000,,2013-05-02 18:52:00,
2013-05-02 15:01:00,64.0,42.0,-100.00,SE,130,7.0,15.0,44,0.00,,,0.00,981.000000,,2013-05-02 19:01:00,
2013-05-02 15:32:00,64.0,44.0,-100.00,East,92,6.0,15.0,48,0.00,,,0.00,899.000000,,2013-05-02 19:32:00,
2013-05-02 15:42:00,64.0,44.0,-100.00,East,92,6.0,15.0,48,0.00,,,0.00,899.000000,,2013-05-02 19:42:00,
2013-05-02 15:52:00,64.0,44.0,-100.00,East,92,6.0,15.0,48,0.00,,,0.00,899.000000,,2013-05-02 19:52:00,
2013-05-02 16:02:00,64.0,44.0,-100.00,East,92,6.0,15.0,48,0.00,,,0.00,899.000000,,2013-05-02 20:02:00,
2013-05-02 16:32:00,64.0,41.0,-100.00,ENE,78,6.0,16.0,43,0.00,,,0.00,790.000000,,2013-05-02 20:32:00,
2013-05-02 16:42:00,64.0,41.0,-100.00,ENE,78,6.0,16.0,43,0.00,,,0.00,790.000000,,2013-05-02 20:42:00,
2013-05-02 16:52:00,64.0,41.0,-100.00,ENE,78,6.0,16.0,43,0.00,,,0.00,790.000000,,2013-05-02 20:52:00,
2013-05-02 17:01:00,64.0,41.0,-100.00,ENE,78,6.0,16.0,43,0.00,,,0.00,790.000000,,2013-05-02 21:01:00,
2013-05-02 17:33:00,62.0,40.0,-100.00,East,80,6.0,14.0,45,0.00,,,0.00,623.000000,,2013-05-02 21:33:00,
2013-05-02 17:42:00,62.0,40.0,-100.00,East,80,6.0,14.0,45,0.00,,,0.00,623.000000,,2013-05-02 21:42:00,
2013-05-02 17:53:00,62.0,40.0,-100.00,East,80,6.0,14.0,45,0.00,,,0.00,623.000000,,2013-05-02 21:53:00,
2013-05-02 18:03:00,62.0,40.0,-100.00,East,80,6.0,14.0,45,0.00,,,0.00,623.000000,,2013-05-02 22:03:00,
2013-05-02 18:33:00,61.0,41.0,-100.00,ENE,69,5.0,12.0,47,0.00,,,0.00,421.000000,,2013-05-02 22:33:00,
2013-05-02 18:42:00,61.0,41.0,-100.00,ENE,69,5.0,12.0,47,0.00,,,0.00,421.000000,,2013-05-02 22:42:00,
2013-05-02 18:53:00,61.0,41.0,-100.00,ENE,69,5.0,12.0,47,0.00,,,0.00,421.000000,,2013-05-02 22:53:00,
2013-05-02 19:02:00,61.0,41.0,-100.00,ENE,69,5.0,12.0,47,0.00,,,0.00,421.000000,,2013-05-02 23:02:00,
2013-05-02 19:32:00,59.0,43.0,-100.00,ENE,71,4.0,9.0,55,0.00,,,0.00,212.000000,,2013-05-02 23:32:00,
2013-05-02 19:42:00,59.0,43.0,-100.00,ENE,71,4.0,9.0,55,0.00,,,0.00,212.000000,,2013-05-02 23:42:00,
2013-05-02 19:52:00,59.0,43.0,-100.00,ENE,71,4.0,9.0,55,0.00,,,0.00,212.000000,,2013-05-02 23:52:00,
2013-05-02 20:01:00,59.0,43.0,-100.00,ENE,71,4.0,9.0,55,0.00,,,0.00,212.000000,,2013-05-03 00:01:00,
2013-05-02 21:32:00,49.0,46.0,-100.00,East,90,2.0,4.0,89,-99.99,,,0.00,0.000000,,2013-05-03 01:32:00,
2013-05-02 21:42:00,49.0,46.0,-100.00,East,90,2.0,4.0,89,-99.99,,,0.00,0.000000,,2013-05-03 01:42:00,
2013-05-02 21:52:00,49.0,46.0,-100.00,East,90,2.0,4.0,89,-99.99,,,0.00,0.000000,,2013-05-03 01:52:00,
2013-05-02 22:02:00,49.0,46.0,-100.00,East,90,2.0,4.0,89,-99.99,,,0.00,0.000000,,2013-05-03 02:02:00,
2013-05-02 22:32:00,45.0,44.0,-100.00,NNW,333,0.0,2.0,95,0.00,,,0.00,0.000000,,2013-05-03 02:32:00,
2013-05-02 22:42:00,45.0,44.0,-100.00,NNW,333,0.0,2.0,95,0.00,,,0.00,0.000000,,2013-05-03 02:42:00,
2013-05-02 22:52:00,45.0,44.0,-100.00,NNW,333,0.0,2.0,95,0.00,,,0.00,0.000000,,2013-05-03 02:52:00,
2013-05-02 23:01:00,45.0,44.0,-100.00,NNW,333,0.0,2.0,95,0.00,,,0.00,0.000000,,2013-05-03 03:01:00,
2013-05-02 23:33:00,43.0,42.0,-100.00,NNW,338,1.0,2.0,98,0.00,,,0.00,0.000000,,2013-05-03 03:33:00,
2013-05-02 23:43:00,43.0,42.0,-100.00,NNW,338,1.0,2.0,98,0.00,,,0.00,0.000000,,2013-05-03 03:43:00,
2013-05-02 23:53:00,43.0,42.0,-100.00,NNW,338,1.0,2.0,98,0.00,,,0.00,0.000000,,2013-05-03 03:53:00,